TBV8148 SBBR-SBEG

Flight info

Callsign TBV8148
Flight time N/A
Altitude 36000
Route UGUGA UM409 NEMEL DCT IRUMO
Aircraft A339/H-SADE1E2E3GHIJ3J5M1P2RWXY/LB2D1

Departure

Time 2026-04-29 20:11
Airport Presidente Juscelino Kubitschek International Airport (SBBR)

Arrival

Time N/A
Airport Eduardo Gomes International Airport (SBEG)
Time Latitude Longitude Altitude Speed Heading
2026-04-29 19:52 -15.86626 -47.92016 3471 ft 0 kts 87°
2026-04-29 19:55 -15.86625 -47.92010 3474 ft 3 kts 87°
2026-04-29 19:56 -15.86624 -47.91977 3470 ft 5 kts 87°
2026-04-29 19:56 -15.86622 -47.91938 3471 ft 6 kts 85°
2026-04-29 19:56 -15.86619 -47.91895 3473 ft 6 kts 86°
2026-04-29 19:56 -15.86615 -47.91848 3474 ft 7 kts 86°
2026-04-29 19:57 -15.86612 -47.91800 3472 ft 7 kts 86°
2026-04-29 19:57 -15.86627 -47.91738 3471 ft 11 kts 120°
2026-04-29 19:57 -15.86695 -47.91712 3476 ft 10 kts 173°
2026-04-29 19:57 -15.86760 -47.91706 3473 ft 9 kts 176°
2026-04-29 19:58 -15.86815 -47.91703 3474 ft 7 kts 176°
2026-04-29 19:58 -15.86863 -47.91700 3475 ft 6 kts 176°
2026-04-29 19:58 -15.86901 -47.91698 3476 ft 6 kts 176°
2026-04-29 19:58 -15.86975 -47.91693 3478 ft 13 kts 176°
2026-04-29 19:59 -15.87062 -47.91687 3477 ft 13 kts 176°
2026-04-29 19:59 -15.87158 -47.91680 3473 ft 15 kts 176°
2026-04-29 19:59 -15.87269 -47.91674 3468 ft 17 kts 177°
2026-04-29 19:59 -15.87355 -47.91667 3466 ft 12 kts 175°
2026-04-29 20:00 -15.87402 -47.91665 3456 ft 9 kts 179°
2026-04-29 20:00 -15.87413 -47.91665 3456 ft 0 kts 176°
2026-04-29 20:00 -15.87420 -47.91664 3457 ft 0 kts 172°
2026-04-29 20:00 -15.87417 -47.91665 3457 ft 2 kts 170°
2026-04-29 20:01 -15.87420 -47.91664 3460 ft 0 kts 172°
2026-04-29 20:01 -15.88019 -47.91563 3444 ft 772 kts 183°
2026-04-29 20:01 -15.87545 -47.91563 3452 ft 0 kts 183°
2026-04-29 20:02 -15.87546 -47.91563 3452 ft 1 kts 183°
2026-04-29 20:02 -15.87595 -47.91567 3450 ft 10 kts 184°
2026-04-29 20:02 -15.87670 -47.91634 3453 ft 20 kts 229°
2026-04-29 20:02 -15.87731 -47.91721 3455 ft 23 kts 251°
2026-04-29 20:03 -15.87757 -47.91957 3459 ft 23 kts 263°
2026-04-29 20:03 -15.87768 -47.92112 3463 ft 20 kts 268°
2026-04-29 20:03 -15.87775 -47.92248 3469 ft 17 kts 266°
2026-04-29 20:03 -15.87784 -47.92365 3471 ft 15 kts 265°
2026-04-29 20:04 -15.87790 -47.92472 3470 ft 14 kts 266°
2026-04-29 20:04 -15.87796 -47.92573 3473 ft 14 kts 266°
2026-04-29 20:04 -15.87800 -47.92668 3438 ft 12 kts 267°
2026-04-29 20:04 -15.87805 -47.92752 3475 ft 11 kts 267°
2026-04-29 20:05 -15.87809 -47.92826 3480 ft 10 kts 266°
2026-04-29 20:05 -15.87813 -47.92895 3481 ft 10 kts 266°
2026-04-29 20:05 -15.87817 -47.92966 3481 ft 10 kts 266°
2026-04-29 20:05 -15.87820 -47.93038 3481 ft 10 kts 267°
2026-04-29 20:06 -15.87823 -47.93104 3484 ft 9 kts 267°
2026-04-29 20:06 -15.87827 -47.93159 3486 ft 7 kts 265°
2026-04-29 20:06 -15.87832 -47.93225 3489 ft 12 kts 265°
2026-04-29 20:06 -15.87840 -47.93331 3497 ft 17 kts 265°
2026-04-29 20:07 -15.87849 -47.93466 3504 ft 19 kts 266°
2026-04-29 20:07 -15.87857 -47.93595 3503 ft 16 kts 267°
2026-04-29 20:07 -15.87862 -47.93699 3515 ft 12 kts 266°
2026-04-29 20:07 -15.87867 -47.93774 3510 ft 9 kts 266°
2026-04-29 20:08 -15.87870 -47.93827 3516 ft 6 kts 266°
2026-04-29 20:08 -15.87872 -47.93854 3518 ft 5 kts 266°
2026-04-29 20:08 -15.87875 -47.93897 3520 ft 4 kts 265°
2026-04-29 20:08 -15.87878 -47.93938 3518 ft 10 kts 264°
2026-04-29 20:09 -15.87916 -47.93999 3519 ft 9 kts 214°
2026-04-29 20:09 -15.87974 -47.94003 3518 ft 8 kts 183°
2026-04-29 20:09 -15.88021 -47.94000 3521 ft 6 kts 169°
2026-04-29 20:09 -15.88054 -47.93974 3521 ft 6 kts 129°
2026-04-29 20:10 -15.88059 -47.93897 3519 ft 12 kts 86°
2026-04-29 20:10 -15.88059 -47.93892 3519 ft 0 kts 86°
2026-04-29 20:11 -15.88054 -47.93811 3510 ft 42 kts 86°
2026-04-29 20:11 -15.88019 -47.93214 3483 ft 121 kts 86°
2026-04-29 20:11 -15.87953 -47.92123 3502 ft 178 kts 86°
2026-04-29 20:11 -15.87869 -47.90848 4279 ft 173 kts 86°
2026-04-29 20:12 -15.87770 -47.89609 5123 ft 170 kts 85°
2026-04-29 20:12 -15.87662 -47.88340 5681 ft 185 kts 85°
2026-04-29 20:12 -15.87537 -47.86945 6130 ft 204 kts 86°
2026-04-29 20:12 -15.87378 -47.85406 6450 ft 225 kts 85°
2026-04-29 20:13 -15.87202 -47.83705 6656 ft 247 kts 84°
2026-04-29 20:13 -15.86987 -47.81890 6846 ft 266 kts 84°
2026-04-29 20:13 -15.86728 -47.79942 7193 ft 277 kts 83°
2026-04-29 20:13 -15.86435 -47.77960 7737 ft 279 kts 82°
2026-04-29 20:14 -15.86118 -47.75957 8220 ft 283 kts 83°
2026-04-29 20:14 -15.85787 -47.73926 8653 ft 288 kts 77°
2026-04-29 20:14 -15.84905 -47.72036 9112 ft 296 kts 53°
2026-04-29 20:14 -15.83338 -47.70634 9542 ft 303 kts 30°
2026-04-29 20:15 -15.81324 -47.69968 9971 ft 308 kts
2026-04-29 20:15 -15.79182 -47.70163 10246 ft 315 kts 342°
2026-04-29 20:15 -15.77210 -47.71223 10365 ft 327 kts 319°
2026-04-29 20:15 -15.75742 -47.73014 10489 ft 336 kts 297°
2026-04-29 20:16 -15.74737 -47.75241 10601 ft 346 kts 292°
2026-04-29 20:16 -15.73616 -47.77487 10799 ft 354 kts 300°
2026-04-29 20:16 -15.72202 -47.79591 11175 ft 355 kts 307°
2026-04-29 20:16 -15.70596 -47.81540 11532 ft 356 kts 311°
2026-04-29 20:17 -15.68885 -47.83402 11862 ft 357 kts 314°
2026-04-29 20:17 -15.67129 -47.85232 12178 ft 358 kts 315°
2026-04-29 20:17 -15.65357 -47.87059 12506 ft 359 kts 315°
2026-04-29 20:17 -15.63586 -47.88890 12823 ft 359 kts 315°
2026-04-29 20:18 -15.61820 -47.90727 13122 ft 360 kts 315°
2026-04-29 20:18 -15.60051 -47.92570 13434 ft 361 kts 316°
2026-04-29 20:18 -15.58278 -47.94420 13746 ft 361 kts 316°
2026-04-29 20:18 -15.56507 -47.96270 13981 ft 363 kts 316°
2026-04-29 20:19 -15.54750 -47.98105 14200 ft 364 kts 316°
2026-04-29 20:19 -15.52960 -47.99975 14416 ft 366 kts 316°
2026-04-29 20:19 -15.51163 -48.01851 14639 ft 367 kts 316°
2026-04-29 20:19 -15.49362 -48.03728 14826 ft 368 kts 316°
2026-04-29 20:20 -15.47553 -48.05615 15013 ft 369 kts 316°
2026-04-29 20:20 -15.45742 -48.07505 15203 ft 370 kts 316°
2026-04-29 20:20 -15.43921 -48.09406 15365 ft 371 kts 316°
2026-04-29 20:20 -15.42094 -48.11311 15515 ft 373 kts 316°
2026-04-29 20:21 -15.40263 -48.13220 15684 ft 374 kts 316°
2026-04-29 20:21 -15.38427 -48.15133 15841 ft 374 kts 316°
2026-04-29 20:21 -15.36585 -48.17054 16001 ft 375 kts 316°
2026-04-29 20:21 -15.34744 -48.18972 16129 ft 376 kts 316°
2026-04-29 20:22 -15.32897 -48.20897 16257 ft 377 kts 316°
2026-04-29 20:22 -15.31070 -48.22800 16399 ft 378 kts 316°
2026-04-29 20:22 -15.29215 -48.24732 16528 ft 378 kts 316°
2026-04-29 20:22 -15.27357 -48.26667 16660 ft 379 kts 316°
2026-04-29 20:23 -15.25493 -48.28607 16762 ft 380 kts 316°
2026-04-29 20:23 -15.23623 -48.30552 16906 ft 380 kts 316°
2026-04-29 20:23 -15.21754 -48.32496 17029 ft 381 kts 316°
2026-04-29 20:23 -15.19882 -48.34444 17143 ft 382 kts 316°
2026-04-29 20:24 -15.18003 -48.36399 17253 ft 383 kts 316°
2026-04-29 20:24 -15.16123 -48.38354 17368 ft 383 kts 316°
2026-04-29 20:24 -15.14266 -48.40285 17482 ft 384 kts 316°
2026-04-29 20:24 -15.12381 -48.42243 17580 ft 384 kts 316°
2026-04-29 20:25 -15.10465 -48.44232 17693 ft 385 kts 316°
2026-04-29 20:25 -15.08596 -48.46175 17785 ft 386 kts 316°
2026-04-29 20:25 -15.06697 -48.48147 17896 ft 387 kts 316°
2026-04-29 20:25 -15.04795 -48.50121 18002 ft 387 kts 316°
2026-04-29 20:26 -15.02890 -48.52098 18108 ft 388 kts 317°
2026-04-29 20:26 -15.00983 -48.54077 18204 ft 389 kts 317°
2026-04-29 20:26 -14.99071 -48.56060 18293 ft 389 kts 316°
2026-04-29 20:26 -14.97154 -48.58048 18389 ft 390 kts 317°
2026-04-29 20:27 -14.95239 -48.60035 18489 ft 390 kts 317°
2026-04-29 20:27 -14.93968 -48.61352 18528 ft 391 kts 317°
2026-04-29 20:27 -14.91396 -48.64019 18646 ft 391 kts 317°
2026-04-29 20:27 -14.89474 -48.66010 18725 ft 392 kts 317°
2026-04-29 20:28 -14.87546 -48.68006 18883 ft 393 kts 317°
2026-04-29 20:28 -14.85615 -48.70006 19122 ft 394 kts 317°
2026-04-29 20:28 -14.83676 -48.72014 19460 ft 395 kts 317°
2026-04-29 20:28 -14.81735 -48.74024 19832 ft 396 kts 317°
2026-04-29 20:29 -14.79783 -48.76044 20184 ft 398 kts 317°
2026-04-29 20:29 -14.77850 -48.78043 20572 ft 399 kts 317°
2026-04-29 20:29 -14.75882 -48.80077 20935 ft 401 kts 317°
2026-04-29 20:29 -14.73896 -48.82130 21302 ft 403 kts 317°
2026-04-29 20:30 -14.71912 -48.84181 21684 ft 404 kts 317°
2026-04-29 20:30 -14.69915 -48.86245 22062 ft 406 kts 317°
2026-04-29 20:30 -14.67912 -48.88315 22435 ft 408 kts 317°
2026-04-29 20:30 -14.65921 -48.90370 22806 ft 410 kts 317°
2026-04-29 20:31 -14.63897 -48.92461 23176 ft 413 kts 317°
2026-04-29 20:31 -14.61866 -48.94558 23539 ft 415 kts 317°
2026-04-29 20:31 -14.59815 -48.96674 23866 ft 417 kts 317°
2026-04-29 20:31 -14.57754 -48.98800 24178 ft 419 kts 317°
2026-04-29 20:32 -14.55687 -49.00931 24485 ft 422 kts 317°
2026-04-29 20:32 -14.53599 -49.03083 24794 ft 424 kts 317°
2026-04-29 20:32 -14.51507 -49.05239 25102 ft 426 kts 317°
2026-04-29 20:32 -14.50111 -49.06678 25306 ft 428 kts 317°
2026-04-29 20:33 -14.47283 -49.09592 25716 ft 431 kts 316°
2026-04-29 20:33 -14.45151 -49.11787 26020 ft 434 kts 316°
2026-04-29 20:33 -14.43037 -49.13963 26320 ft 436 kts 316°
2026-04-29 20:33 -14.40881 -49.16182 26608 ft 438 kts 316°
2026-04-29 20:34 -14.38716 -49.18410 26916 ft 441 kts 316°
2026-04-29 20:34 -14.36537 -49.20652 27212 ft 443 kts 316°
2026-04-29 20:34 -14.34348 -49.22902 27505 ft 445 kts 316°
2026-04-29 20:34 -14.32149 -49.25162 27785 ft 448 kts 316°
2026-04-29 20:35 -14.29938 -49.27436 28097 ft 450 kts 316°
2026-04-29 20:35 -14.27718 -49.29717 28379 ft 452 kts 316°
2026-04-29 20:35 -14.25483 -49.32013 28662 ft 454 kts 316°
2026-04-29 20:35 -14.23236 -49.34322 28934 ft 457 kts 316°
2026-04-29 20:36 -14.20978 -49.36640 29206 ft 459 kts 316°
2026-04-29 20:36 -14.18742 -49.38935 29493 ft 461 kts 316°
2026-04-29 20:36 -14.16434 -49.41302 29775 ft 463 kts 316°
2026-04-29 20:36 -14.14170 -49.43623 30045 ft 465 kts 316°
2026-04-29 20:37 -14.11872 -49.45980 30309 ft 467 kts 316°
2026-04-29 20:37 -14.09565 -49.48345 30569 ft 469 kts 316°
2026-04-29 20:37 -14.07250 -49.50719 30848 ft 471 kts 316°
2026-04-29 20:37 -14.04926 -49.53100 31129 ft 472 kts 316°
2026-04-29 20:38 -14.02571 -49.55470 31386 ft 474 kts 319°
2026-04-29 20:38 -14.00075 -49.57696 31642 ft 475 kts 320°
2026-04-29 20:38 -13.97569 -49.59925 31897 ft 477 kts 320°
2026-04-29 20:38 -13.95053 -49.62173 32156 ft 479 kts 320°
2026-04-29 20:39 -13.92532 -49.64428 32397 ft 480 kts 320°
2026-04-29 20:39 -13.90008 -49.66685 32609 ft 482 kts 320°
2026-04-29 20:39 -13.87474 -49.68950 32798 ft 483 kts 320°
2026-04-29 20:39 -13.84933 -49.71220 32967 ft 484 kts 320°
2026-04-29 20:40 -13.82382 -49.73496 33120 ft 485 kts 320°
2026-04-29 20:40 -13.79832 -49.75772 33260 ft 486 kts 320°
2026-04-29 20:40 -13.77302 -49.78029 33400 ft 487 kts 320°
2026-04-29 20:40 -13.74742 -49.80312 33563 ft 486 kts 320°
2026-04-29 20:41 -13.72185 -49.82592 33757 ft 486 kts 320°
2026-04-29 20:41 -13.69634 -49.84866 33916 ft 485 kts 320°
2026-04-29 20:41 -13.67084 -49.87138 34069 ft 485 kts 320°
2026-04-29 20:41 -13.64532 -49.89411 34232 ft 484 kts 320°
2026-04-29 20:42 -13.61988 -49.91676 34379 ft 483 kts 320°
2026-04-29 20:42 -13.59447 -49.93938 34527 ft 483 kts 320°
2026-04-29 20:42 -13.56907 -49.96198 34686 ft 482 kts 320°
2026-04-29 20:42 -13.54403 -49.98426 34838 ft 482 kts 320°
2026-04-29 20:43 -13.51869 -50.00680 34983 ft 482 kts 320°
2026-04-29 20:43 -13.49324 -50.02943 35145 ft 481 kts 320°
2026-04-29 20:43 -13.46795 -50.05191 35294 ft 481 kts 320°
2026-04-29 20:43 -13.44267 -50.07438 35460 ft 480 kts 320°
2026-04-29 20:44 -13.41735 -50.09687 35613 ft 480 kts 319°
2026-04-29 20:44 -13.39211 -50.11929 35773 ft 480 kts 319°
2026-04-29 20:44 -13.34173 -50.16401 35876 ft 484 kts 319°
2026-04-29 20:45 -13.29056 -50.20941 35874 ft 488 kts 319°
2026-04-29 20:45 -13.24778 -50.24735 35874 ft 489 kts 319°
2026-04-29 20:46 -13.19616 -50.29310 35877 ft 491 kts 319°
2026-04-29 20:46 -13.14433 -50.33901 35879 ft 491 kts 320°
2026-04-29 20:47 -13.09255 -50.38484 35880 ft 492 kts 320°
2026-04-29 20:47 -13.04068 -50.43074 35879 ft 492 kts 320°
2026-04-29 20:48 -12.98877 -50.47664 35878 ft 492 kts 320°
2026-04-29 20:48 -12.93717 -50.52224 35881 ft 493 kts 320°
2026-04-29 20:49 -12.88514 -50.56819 35877 ft 493 kts 320°
2026-04-29 20:49 -12.83317 -50.61406 35879 ft 493 kts 320°
2026-04-29 20:50 -12.78111 -50.65998 35879 ft 493 kts 320°
2026-04-29 20:50 -12.72908 -50.70585 35879 ft 494 kts 320°
2026-04-29 20:51 -12.67696 -50.75178 35875 ft 494 kts 320°
2026-04-29 20:51 -12.62482 -50.79771 35875 ft 494 kts 320°
2026-04-29 20:52 -12.57302 -50.84331 35876 ft 494 kts 320°
2026-04-29 20:52 -12.52084 -50.88921 35876 ft 494 kts 320°
2026-04-29 20:53 -12.46865 -50.93511 35877 ft 494 kts 320°
2026-04-29 20:53 -12.41642 -50.98100 35878 ft 495 kts 320°
2026-04-29 20:54 -12.33801 -51.04986 35875 ft 495 kts 320°
2026-04-29 20:55 -12.28571 -51.09577 35875 ft 495 kts 320°
2026-04-29 20:55 -12.23335 -51.14169 35874 ft 496 kts 320°
2026-04-29 20:56 -12.18102 -51.18757 35876 ft 496 kts 320°
2026-04-29 20:56 -12.12861 -51.23348 35878 ft 496 kts 320°
2026-04-29 20:57 -12.07651 -51.27910 35878 ft 496 kts 320°
2026-04-29 20:57 -12.02406 -51.32500 35883 ft 496 kts 320°
2026-04-29 20:58 -11.97161 -51.37088 35879 ft 496 kts 320°
2026-04-29 20:58 -11.91914 -51.41674 35883 ft 496 kts 320°
2026-04-29 20:59 -11.86669 -51.46257 35884 ft 496 kts 320°
2026-04-29 20:59 -11.81421 -51.50840 35883 ft 496 kts 320°
2026-04-29 21:00 -11.76210 -51.55388 35883 ft 496 kts 320°
2026-04-29 21:00 -11.70966 -51.59963 35881 ft 496 kts 320°
2026-04-29 21:01 -11.65719 -51.64538 35881 ft 495 kts 320°
2026-04-29 21:01 -11.60475 -51.69109 35886 ft 495 kts 320°
2026-04-29 21:02 -11.55234 -51.73674 35880 ft 495 kts 320°
2026-04-29 21:02 -11.49987 -51.78241 35876 ft 495 kts 320°
2026-04-29 21:03 -11.44743 -51.82804 35880 ft 495 kts 320°
2026-04-29 21:03 -11.39507 -51.87357 35887 ft 495 kts 320°
2026-04-29 21:04 -11.34296 -51.91886 35882 ft 495 kts 320°
2026-04-29 21:04 -11.29050 -51.96445 35881 ft 495 kts 320°
2026-04-29 21:05 -11.23778 -52.00967 35881 ft 495 kts 321°
2026-04-29 21:05 -11.18509 -52.05417 35879 ft 495 kts 321°
2026-04-29 21:06 -11.13211 -52.09902 35879 ft 495 kts 321°
2026-04-29 21:06 -11.07909 -52.14396 35879 ft 495 kts 321°
2026-04-29 21:07 -11.02619 -52.18879 35877 ft 495 kts 321°
2026-04-29 21:07 -10.97328 -52.23360 35876 ft 495 kts 321°
2026-04-29 21:08 -10.92028 -52.27847 35876 ft 495 kts 321°
2026-04-29 21:08 -10.86765 -52.32299 35879 ft 495 kts 321°
2026-04-29 21:09 -10.81467 -52.36781 35879 ft 495 kts 321°
2026-04-29 21:09 -10.76165 -52.41262 35880 ft 495 kts 321°
2026-04-29 21:10 -10.70868 -52.45738 35879 ft 495 kts 321°
2026-04-29 21:10 -10.65572 -52.50211 35876 ft 495 kts 321°
2026-04-29 21:11 -10.60277 -52.54680 35876 ft 495 kts 321°
2026-04-29 21:11 -10.55013 -52.59121 35874 ft 495 kts 321°
2026-04-29 21:12 -10.49717 -52.63588 35876 ft 495 kts 321°
2026-04-29 21:12 -10.44418 -52.68055 35872 ft 494 kts 321°
2026-04-29 21:13 -10.39117 -52.72521 35872 ft 494 kts 321°
2026-04-29 21:13 -10.33824 -52.76979 35868 ft 494 kts 321°
2026-04-29 21:14 -10.28560 -52.81409 35869 ft 494 kts 321°
2026-04-29 21:14 -10.23256 -52.85872 35871 ft 494 kts 321°
2026-04-29 21:15 -10.17954 -52.90331 35871 ft 494 kts 321°
2026-04-29 21:15 -10.12682 -52.94763 35871 ft 494 kts 321°
2026-04-29 21:16 -10.07388 -52.99212 35871 ft 494 kts 321°
2026-04-29 21:16 -10.02096 -53.03657 35870 ft 493 kts 321°
2026-04-29 21:17 -9.96803 -53.08100 35869 ft 493 kts 321°
2026-04-29 21:17 -9.91520 -53.12534 35870 ft 493 kts 321°
2026-04-29 21:18 -9.86362 -53.17114 35867 ft 493 kts 317°
2026-04-29 21:18 -9.81351 -53.21877 35867 ft 493 kts 317°
2026-04-29 21:19 -9.76309 -53.26607 35867 ft 493 kts 318°
2026-04-29 21:19 -9.71287 -53.31278 35867 ft 493 kts 318°
2026-04-29 21:20 -9.66226 -53.35977 35868 ft 493 kts 318°
2026-04-29 21:20 -9.61164 -53.40677 35867 ft 493 kts 318°
2026-04-29 21:21 -9.56103 -53.45373 35866 ft 493 kts 318°
2026-04-29 21:21 -9.51038 -53.50072 35863 ft 493 kts 318°
2026-04-29 21:22 -9.46006 -53.54738 35866 ft 493 kts 318°
2026-04-29 21:22 -9.40945 -53.59430 35864 ft 493 kts 318°
2026-04-29 21:23 -9.35881 -53.64122 35864 ft 493 kts 318°
2026-04-29 21:23 -9.30819 -53.68810 35864 ft 493 kts 318°
2026-04-29 21:24 -9.25762 -53.73493 35861 ft 493 kts 318°
2026-04-29 21:24 -9.20733 -53.78147 35866 ft 493 kts 318°
2026-04-29 21:25 -9.15674 -53.82827 35864 ft 493 kts 318°
2026-04-29 21:25 -9.10607 -53.87512 35865 ft 493 kts 318°
2026-04-29 21:26 -9.05541 -53.92195 35865 ft 493 kts 318°
2026-04-29 21:26 -9.00477 -53.96874 35868 ft 493 kts 318°
2026-04-29 21:27 -8.96267 -54.00763 35869 ft 493 kts 318°
2026-04-29 21:27 -8.90342 -54.06233 35867 ft 493 kts 318°
2026-04-29 21:28 -8.85304 -54.10882 35866 ft 493 kts 318°
2026-04-29 21:28 -8.80231 -54.15562 35866 ft 493 kts 318°
2026-04-29 21:29 -8.75159 -54.20239 35868 ft 494 kts 318°
2026-04-29 21:29 -8.70081 -54.24920 35868 ft 494 kts 318°
2026-04-29 21:30 -8.65007 -54.29596 35869 ft 494 kts 318°
2026-04-29 21:30 -8.59920 -54.34281 35868 ft 494 kts 318°
2026-04-29 21:31 -8.55695 -54.38171 35867 ft 494 kts 318°
2026-04-29 21:31 -8.50614 -54.42848 35868 ft 494 kts 318°
2026-04-29 21:32 -8.45530 -54.47526 35866 ft 494 kts 318°
2026-04-29 21:32 -8.40440 -54.52208 35868 ft 495 kts 318°
2026-04-29 21:33 -8.35338 -54.56899 35864 ft 495 kts 318°
2026-04-29 21:33 -8.30244 -54.61580 35865 ft 495 kts 318°
2026-04-29 21:34 -8.25172 -54.66240 35864 ft 496 kts 318°
2026-04-29 21:34 -8.20070 -54.70925 35864 ft 496 kts 318°
2026-04-29 21:35 -8.14965 -54.75612 35866 ft 496 kts 318°
2026-04-29 21:35 -8.09850 -54.80307 35866 ft 496 kts 318°
2026-04-29 21:36 -8.04774 -54.84963 35864 ft 496 kts 318°
2026-04-29 21:36 -7.99656 -54.89656 35865 ft 496 kts 318°
2026-04-29 21:37 -7.94552 -54.94335 35862 ft 496 kts 318°
2026-04-29 21:37 -7.89435 -54.99025 35860 ft 496 kts 318°
2026-04-29 21:38 -7.84325 -55.03705 35862 ft 495 kts 318°
2026-04-29 21:38 -7.79221 -55.08380 35863 ft 495 kts 318°
2026-04-29 21:39 -7.74124 -55.13046 35864 ft 495 kts 318°
2026-04-29 21:39 -7.69026 -55.17712 35864 ft 494 kts 318°
2026-04-29 21:40 -7.63963 -55.22344 35862 ft 494 kts 318°
2026-04-29 21:40 -7.58869 -55.27002 35862 ft 494 kts 318°
2026-04-29 21:41 -7.53772 -55.31662 35861 ft 494 kts 318°
2026-04-29 21:41 -7.48683 -55.36314 35862 ft 494 kts 318°
2026-04-29 21:42 -7.43586 -55.40971 35862 ft 494 kts 318°
2026-04-29 21:42 -7.38892 -55.46029 35861 ft 495 kts 308°
2026-04-29 21:43 -7.34884 -55.51604 35861 ft 495 kts 306°
2026-04-29 21:43 -7.30831 -55.57214 35861 ft 495 kts 307°
2026-04-29 21:44 -7.26770 -55.62824 35861 ft 495 kts 307°
2026-04-29 21:44 -7.22707 -55.68438 35864 ft 495 kts 307°
2026-04-29 21:45 -7.18646 -55.74048 35861 ft 495 kts 307°
2026-04-29 21:45 -7.14586 -55.79654 35863 ft 495 kts 307°
2026-04-29 21:46 -7.10551 -55.85225 35863 ft 495 kts 307°
2026-04-29 21:46 -7.06480 -55.90841 35861 ft 495 kts 307°
2026-04-29 21:47 -7.02419 -55.96443 35863 ft 495 kts 307°
2026-04-29 21:47 -6.98350 -56.02054 35863 ft 496 kts 307°
2026-04-29 21:48 -6.94283 -56.07659 35863 ft 496 kts 307°
2026-04-29 21:48 -6.90241 -56.13230 35861 ft 496 kts 307°
2026-04-29 21:49 -6.86168 -56.18840 35863 ft 496 kts 307°
2026-04-29 21:49 -6.82093 -56.24452 35865 ft 496 kts 307°
2026-04-29 21:50 -6.78023 -56.30057 35862 ft 496 kts 307°
2026-04-29 21:50 -6.73970 -56.35633 35865 ft 496 kts 307°
2026-04-29 21:51 -6.69898 -56.41235 35866 ft 496 kts 307°
2026-04-29 21:51 -6.63777 -56.49652 35862 ft 496 kts 307°
2026-04-29 21:52 -6.59697 -56.55261 35861 ft 497 kts 307°
2026-04-29 21:52 -6.55619 -56.60865 35862 ft 497 kts 307°
2026-04-29 21:53 -6.51535 -56.66474 35863 ft 497 kts 307°
2026-04-29 21:53 -6.47476 -56.72050 35863 ft 497 kts 307°
2026-04-29 21:54 -6.43388 -56.77662 35863 ft 497 kts 307°
2026-04-29 21:54 -6.39306 -56.83265 35860 ft 497 kts 307°
2026-04-29 21:55 -6.35217 -56.88875 35859 ft 497 kts 307°
2026-04-29 21:55 -6.31128 -56.94484 35856 ft 497 kts 307°
2026-04-29 21:56 -6.27034 -57.00097 35854 ft 497 kts 307°
2026-04-29 21:56 -6.22965 -57.05674 35854 ft 497 kts 307°
2026-04-29 21:57 -6.18874 -57.11281 35854 ft 497 kts 307°
2026-04-29 21:57 -6.14781 -57.16889 35852 ft 497 kts 307°
2026-04-29 21:58 -6.10691 -57.22491 35855 ft 497 kts 307°
2026-04-29 21:58 -6.06597 -57.28095 35853 ft 497 kts 307°
2026-04-29 21:59 -6.02501 -57.33701 35850 ft 497 kts 307°
2026-04-29 21:59 -5.98404 -57.39305 35851 ft 497 kts 307°